Regional Weather Roundup
Issued by NWS

Home | Current Version | Previous Version | Text Only | Print | Product List | Glossary On
Versions: 1 2 3 4 5 6 7 8 9 10 11 12 13 14 15 16 17 18 19 20 21 22 23 24 25 26 27 28 29 30 31 32 33 34 35 36 37 38 39 40 41 42 43 44 45 46 47 48 49 50
000
ASHW40 PHFO 252032
RWRHI

WEATHER ROUNDUP FOR HAWAII
NATIONAL WEATHER SERVICE HONOLULU HI
1000 AM HST MON JUL 25 2016

THIS IS AN AUTOMATED REPORT THAT HAS NOT BEEN QUALITY CONTROLLED.

NOTE..."FAIR" INDICATES FEW OR NO CLOUDS BELOW 12,000 FEET WITH NO
SIGNIFICANT WEATHER AND/OR OBSTRUCTIONS TO VISIBILITY.

* - THESE SITES REPORT LIMITED FIELDS

HIZ001>004-252100-
KAUAI-NIIHAU-

CITY           SKY/WX    TMP DP  RH WIND       PRES   REMARKS
LIHUE APT      MOSUNNY   82  75  79 S10       29.98R
PORT ALLEN*      N/A     82 N/A N/A E7          N/A
POIPU*           N/A     82 N/A N/A S3          N/A
PRINCEVILLE*     N/A     81 N/A N/A NE8G14      N/A
KOKOLE POINT*  NOT AVBL
MOLOAA DAIRY*    N/A     81  77  89 E7G14       N/A
WAIMEA HTS*    NOT AVBL
PUU OPAE*      NOT AVBL
PUU LUA*       NOT AVBL
MAKAHA RIDGE*    N/A     79  70  73 S3G16       N/A
$$

HIZ005>011-252100-
OAHU-

CITY           SKY/WX    TMP DP  RH WIND       PRES   REMARKS
HONOLULU       PTSUNNY   79  76  90 VRB7      29.98S
KALAELOA       MOSUNNY   85  77  77 SE9       30.00S HX  95
KANEOHE MCB    SUNNY     83  77  82 SE12G20   29.95F HX  92
WHEELER FIELD  FAIR      83  76  79 VRB7      30.01S HX  90
BELLOWS*         N/A    N/A N/A N/A SE2         N/A
KAHUKU*          N/A    N/A N/A N/A VRB6G14     N/A
WHEELER*       NOT AVBL
WAIANAE HARBOR NOT AVBL
DILLINGHAM*      N/A     88  66  48 MISG        N/A  HX  90
KAHUKU TRN*      N/A     86  79  79 NW3G12      N/A  HX  99
KAWAILOA*        N/A     81  72  74 S3G16       N/A
KII*             N/A     82  79  89 E10G17      N/A  HX  93
MAKUA RANGE*     N/A     88  73  62 E5G16       N/A  HX  96
OAHU FOREST NW NOT AVBL
SCHOFIELD BRK*   N/A     81  72  74 MISG        N/A
SCHOFIELD S*   NOT AVBL
WAIANAE VLY*   NOT AVBL
KUAOKALA*      NOT AVBL
HONOULIUULI*   NOT AVBL
MOKUOLOE IS*   NOT AVBL
PALEHUA*       NOT AVBL
WAIAWA PHB*    NOT AVBL
$$

HIZ012>013-252100-
MOLOKAI-

CITY           SKY/WX    TMP DP  RH WIND       PRES   REMARKS
MOLOKAI AIRPT  SUNNY     85  71  63 VRB5      30.02S HX  90
KALAUPAPA      NOT AVBL
MAKAPULAPAI*     N/A     84  73  70 E6          N/A  HX  91
MOLOKAI 1*     NOT AVBL
PUU ALII*        N/A     70  67  92 NW1         N/A
$$

HIZ016-252100-
KAHOOLAWE-

CITY           SKY/WX    TMP DP  RH WIND       PRES   REMARKS
KAHOOLAWE*       N/A     79 N/A N/A E1          N/A
HAKIOAWA*        N/A     82  71  69 MISG      30.44R
HONOKANAIA*      N/A     84  71  65 E12G21    29.93R
KANELOA*         N/A     79  70  73 E14G23    30.07R
KEALIALALO*    NOT AVBL
LUA MAKIKA*    NOT AVBL
$$

HIZ014>015-252100-
LANAI-

CITY           SKY/WX    TMP DP  RH WIND       PRES   REMARKS
LANAI CITY     PTSUNNY   80  72  76 SW5       30.07S
LANAI 1*       NOT AVBL
$$

HIZ017>028-252100-
MAUI-

CITY           SKY/WX    TMP DP  RH WIND       PRES   REMARKS
KAHULUI        MOSUNNY   86  71  60 N5        29.99R HX  91
KAPALUA-W MAUI MOSUNNY   88  72  58 NW6       30.01  HX  94
HANA AIRPORT     N/A     84  75  74 SE6       30.04S HX  92
HANA*            N/A     82 N/A N/A SE6         N/A
HALEAKALA SUMM   N/A     57  46  67 SE8G32      N/A
MAALAEA BAY*     N/A     90 N/A N/A S8          N/A
HALEAKALA*     NOT AVBL
KAUPO GAP*     NOT AVBL
KULA 1*          N/A     69  60  73 NW3         N/A
$$

HIZ023>026-252100-
BIG ISLAND OF HAWAII COAST AND LOWER SLOPES-

CITY           SKY/WX    TMP DP  RH WIND       PRES   REMARKS
KAILUA KONA    MOSUNNY   87  75  67 S17       29.96R HX  96
HILO           PTSUNNY   84  70  62 SE8       30.01S
HONOKAA*         N/A     82 N/A N/A VRB1        N/A
KAWAIHAE MWT*    N/A     86 N/A N/A NW8         N/A
KAWAIHAE*        N/A     82 N/A N/A W9        29.94F
SOUTH POINT*     N/A     79 N/A N/A N21G31      N/A
UPOLU AIRPORT*   N/A    N/A N/A N/A NE17G26     N/A
KAMUELA*       CLEAR     84  64  51 NE15      30.11R
HAKALAU*         N/A     74  41  30 S6G12       N/A
KALOKO-HONOKO*   N/A     86  75  70 S12       29.96R HX  95
PALI 2*          N/A     73  68  83 NW9G16      N/A
KEALAKOMO*       N/A     84  72  65 E13G18      N/A
KAUPULEHU*     NOT AVBL
KAPAPALA*        N/A     76  70  81 S3          N/A
LOWER KAHUKU*    N/A     70  64  83 NE3G14      N/A
PUHE CS*         N/A     88  72  58 W7          N/A  HX  94
PUHO CS*         N/A     86  74  66 S6G13       N/A  HX  94
PTA KEAMUKU*     N/A     81  64  57 CALM        N/A
WAIKOLOA*      NOT AVBL
$$

HIZ027>028-252100-
BIG ISLAND OF HAWAII INTERIOR AND SUMMMITS-

CITY           SKY/WX    TMP DP  RH WIND       PRES   REMARKS
BRADSHAW FIELD SUNNY     80  25  13 SE7G18    30.36S
MK VISITOR CEN   N/A     61  28  29 E7          N/A
MAUNA KEA*       N/A     41  19  42 S16         N/A
MAUNA LOA*       N/A    N/A N/A N/A MISG        N/A
MAUNA LOA 1*   NOT AVBL
PTA KIPUKA*      N/A     55  36  47 N6G12       N/A
PTA RANGE 17*    N/A     70  55  60 NW9         N/A
PTA WEST*        N/A     75  59  57 NW9G15      N/A
NENE CABIN*      N/A     68  55  64 E8G14       N/A
AHUMOA*        NOT AVBL
PTA PORTABLE*  NOT AVBL
PUU MALI*        N/A     66  63  88 NE3         N/A
$$

HIC003-252100-
NORTHWEST ISLANDS-

CITY           SKY/WX    TMP DP  RH WIND       PRES   REMARKS
MIDWAY ISLAND  MOSUNNY   79  72  78 E21       30.18R
MIDWAY NOS*      N/A     79 N/A N/A MISG      30.16S
FRENCH FRIGATE NOT AVBL
$$

PHZ110>124-180-252100-
BUOY REPORTS

STATION/POSITION TIME  TEMP    WIND        PRES    WAVE   SWELL
                       AIR SEA DIR/SP/G            HT/PER HT/DIR
                 (UTC) (F)     (DEG/KT/KT) (MB)    (FT/S) (FT/D)
BUOY 51001       2000   80 81   80/ 14/ 17 1017.0R
BUOY 51101       1950   78 78   50/ 17/ 21 1015.8R   7/ 8   5/100
BUOY 51100       NOT AVBL
BUOY 51002       1950   81 82   70/  8/ 10 1014.4R   6/ 8   5
BUOY 51003       1950   81 83  250/  2/  4 1014.5    5/ 8   5/ 60
BUOY 51004       1950   78 81   80/ 14/ 17 1014.9    6/ 9   5/ 60
BARBERS PT BUOY  NOT AVBL
WAIMEA BAY BUOY  2004      80                N/A     4/ 7   2/ 30
KAILUA BAY BUOY  2011      80                N/A     5/ 7   2/ 80
LANAI BUOY       2015      82                N/A     3/13   2/200
BARBERS PT 2     NOT AVBL
PAUWELA MAUI     2009      81                N/A     5/ 9   2/ 80
HILO             2012      80                N/A     5/ 9   2/ 70
KANEOHE BAY BUOY 2006      78                N/A     5/ 7   2/ 60
HANALEI KAUAI    NOT AVBL
KAHULUI HARBOR   2000   81 79  360/  5/  8 1015.5R
HONOLULU HARBOR  2000   83 80  130/  3/  6 1016.1F
KILO NALU        NOT AVBL
HILO HARBOR      2000   90 79  140/  3/  8 1015.9S
MOKUOLOE         1900   85 80  110/  6/  7 1015.2R
NAWILIWILI       2000   80 80  120/  9/ 11 1014.6R
WHOTS BUOY       NOT AVBL
BUOY 51028       NOT AVBL
$$

......................KEY........................................
  SKY/WX - SKY CONDITIONS/PRESENT WEATHER
  TMP    - TEMPERATURE IN FAHRENHEIT
  DWPT   - DEWPOINT IN FAHRENHEIT
  RH     - RELATIVE HUMIDITY IN PERCENT
  WIND   - DIRECTION AND SPEED /MPH FOR ISLANDS...KTS FOR BUOYS/
  PRES   - MEAN SEA LEVEL PRESSURE IN INCHES OF HG
  VSB    - VISIBILITY IN MILES
  HX     - HEAT INDEX
  WCI    - WIND CHILL INDEX
  VRB    - VARIABLE WIND DIRECTION
  N/A    - NOT AVAILABLE




USA.gov is the U.S. government's official web portal to all federal, state and local government web resources and services.